Regional Weather Roundup
Issued by NWS

Home | Current Version | Previous Version | Graphics & Text | Print | Product List | Glossary On
Versions: 1 2 3 4 5 6 7 8 9 10 11 12 13 14 15 16 17 18 19 20 21 22 23 24 25 26 27 28 29 30 31 32 33 34 35 36 37 38 39 40 41 42 43 44 45 46 47 48 49 50
000
ASUS45 KCYS 031210
RWRWY

WYOMING REGIONAL WEATHER ROUNDUP
NATIONAL WEATHER SERVICE CHEYENNE WY
600 AM MDT WED JUN 03 2015

NOTE:  "FAIR" INDICATES FEW OR NO CLOUDS BELOW 12,000 FEET
WITH NO SIGNIFICANT WEATHER AND/OR OBSTRUCTIONS TO VISIBILITY.

WYZ001-031300-
YELLOWSTONE NATIONAL PARK

CITY           SKY/WX    TMP DP  RH WIND       PRES   REMARKS
LK YELLOWSTONE   N/A     30  28  92 CALM      30.14S
6HR MIN TEMP:  30; 6HR MAX TEMP:  37;

W YELLOWSTONE  NOT AVBL

$$
WYZ002>013-054>058-071-098>099-031300-
NORTHERN WYOMING

CITY           SKY/WX    TMP DP  RH WIND       PRES   REMARKS
JACKSON        FAIR      36  36 100 N3        30.09R
CODY           FAIR      48  43  81 SW6       30.02S
GREYBULL       FAIR      51  47  86 E3        29.99R
6HR MIN TEMP:  51; 6HR MAX TEMP:  63;

WORLAND        FAIR      48  46  93 S3        30.00R
6HR MIN TEMP:  48; 6HR MAX TEMP:  57;

SHERIDAN       FAIR      48  44  86 CALM      29.98S
6HR MIN TEMP:  45; 6HR MAX TEMP:  54;

BUFFALO        MOCLDY    49  45  86 N3        30.03R
6HR MIN TEMP:  47; 6HR MAX TEMP:  52;

GILLETTE       FAIR      49  48  97 S3        30.01R
6HR MIN TEMP:  48; 6HR MAX TEMP:  53;

HULETT         FOG       52  50  93 N5        30.03R VSB 1/4
NEWCASTLE      FAIR      46  45  93 CALM      30.02R

$$
WYZ014>020-022>026-101>103-031300-
CENTRAL WYOMING

CITY           SKY/WX    TMP DP  RH WIND       PRES   REMARKS
BIG PINEY      FAIR      39  35  86 N6        30.10S WCI  35
6HR MIN TEMP:  36; 6HR MAX TEMP:  50;

PINEDALE       FAIR      34  34 100 W5        30.11S WCI  30
DUBOIS         FAIR      36  32  87 CALM      30.12R
LANDER         FAIR      50  39  66 W8        30.04S
6HR MIN TEMP:  49; 6HR MAX TEMP:  58;

RIVERTON       FAIR      51  43  74 E3        30.05S
6HR MIN TEMP:  50; 6HR MAX TEMP:  58;

CASPER         CLOUDY    52  47  83 NE3       30.06R
6HR MIN TEMP:  46; 6HR MAX TEMP:  52;

DOUGLAS        CLOUDY    49  47  93 MISG      30.06R
6HR MIN TEMP:  48; 6HR MAX TEMP:  57;


$$
WYZ021-027>030-104>119-031300-
SOUTHERN WYOMING

CITY           SKY/WX    TMP DP  RH WIND       PRES   REMARKS
EVANSTON       FAIR      47  36  65 N9        30.08R
6HR MIN TEMP:  47; 6HR MAX TEMP:  58;

KEMMERER       FAIR      41  36  81 N10       30.10S
FORT BRIDGER   SUNNY     50  37  62 NW3       30.11S
ROCK SPRINGS   FAIR      50  34  54 S5        30.07R
6HR MIN TEMP:  48; 6HR MAX TEMP:  57;

DIXON          FAIR      46  33  60 E5        30.10R
RAWLINS        FAIR      44  35  70 NE3       30.07S
6HR MIN TEMP:  42; 6HR MAX TEMP:  56;

SARATOGA       FAIR      41  32  70 S9        30.10S
LARAMIE        FAIR      38  35  89 SE9       30.12R WCI  31
6HR MIN TEMP:  37; 6HR MAX TEMP:  50;

CHEYENNE       FAIR      50  46  86 N10       30.07R
6HR MIN TEMP:  50; 6HR MAX TEMP:  57;

TORRINGTON     FAIR      50  47  89 NW8       30.02R
6HR MIN TEMP:  50; 6HR MAX TEMP:  58;

PINE BLUFFS    PTSUNNY   48  46  93 N7        30.05R

$$


USA.gov is the U.S. government's official web portal to all federal, state and local government web resources and services.